Location: Evensen
(52.5775°N, 9.5258°E)
Time: 15:13:14
(UTC+00:00)

Cosmos 1898 Rocket - Pass Details

Date: 15 May 2026
Orbit: 749 x 778 km, 74.0° (Epoch: 10 June)

Event Time Altitude Azimuth Distance (km) Brightness Sun altitude
Rises 22:55:23 0° 329° (NNW) 3,217 7.9 -18.2°
Reaches altitude 10° 22:57:53 10° 322° (NW) 2,291 6.8 -18.2°
Maximum altitude 23:02:37 37° 256° (WSW) 1,169 4.3 -18.3°
Enters shadow 23:04:35 27° 213° (SSW) 1,428 4.5 -18.3°
